Wetbulb
75.40 74.74 74.50 71.62 58.62 59.53 55.23 58.12 61.77 61.10 61.21 64.80 64.71 63.50 61.87 62.85 61.72 55.31 69.78 71.37 73.40 74.31 75.25 76.26 77.16 76.04 76.73 76.93 76.65 76.46 76.43 76.47 76.51 76.34 76.32 76.49 76.73 77.03 76.76 77.03 76.90 76.81 76.87 76.91 76.78 76.92 75.95 76.23 76.22
73.84 73.61 72.36 67.65 55.17 50.69 54.19 61.23 60.24 62.59 64.00 65.46 65.65 64.65 62.92 60.51 66.83 68.06 68.76 72.63 73.90 74.78 74.97 75.15 77.24 77.14 76.94 76.60 76.81 76.94 76.96 76.63 76.73 76.21 76.42 76.16 76.67 76.71 77.13 77.37 77.20 76.89 76.99 77.10 76.97 76.84 76.67 76.42 76.20
73.75 73.87 66.74 63.04 55.29 53.41 54.78 61.59 61.70 63.69 66.01 65.18 64.06 66.04 63.97 63.23 67.29 67.79 71.64 73.38 74.57 74.75 74.94 75.12 77.27 77.42 76.77 77.49 77.06 76.77 76.63 76.69 76.80 76.65 76.24 76.21 76.89 77.01 76.77 77.30 77.00 76.92 76.97 76.58 76.81 76.95 76.73 76.56 76.31
72.65 70.38 67.96 57.33 53.78 58.09 60.37 62.59 63.81 63.78 65.06 65.85 65.18 61.78 66.06 68.63 67.74 70.56 73.36 74.11 74.13 74.51 74.84 76.46 77.39 76.94 77.64 76.90 77.07 76.91 76.60 76.38 76.42 76.82 76.21 76.30 76.51 76.61 77.20 77.35 76.97 76.90 76.76 76.68 76.86 76.88 76.69 75.97 75.59
72.04 67.10 57.87 55.50 56.64 59.89 61.99 65.01 65.17 63.37 63.97 63.80 64.95 61.68 62.91 68.00 71.37 72.32 72.83 73.64 73.28 73.92 75.12 75.29 78.00 77.72 77.02 76.99 77.04 76.77 76.33 76.30 76.34 76.87 76.64 76.99 76.92 76.86 77.54 77.30 77.22 76.92 77.32 76.88 76.77 76.59 76.49 76.09 75.81
64.77 63.20 54.62 53.33 57.93 61.49 63.53 65.29 64.97 64.01 64.27 64.06 63.49 62.93 63.34 69.32 70.19 71.41 72.60 72.59 74.13 74.35 74.88 75.49 77.15 77.18 77.08 77.26 77.24 76.77 76.84 76.71 76.68 76.93 77.08 77.20 77.10 77.18 77.34 77.13 76.53 77.06 77.10 77.08 76.99 76.47 76.26 75.72 75.50
64.15 59.35 55.06 55.80 57.58 60.61 62.50 65.57 63.43 63.44 63.28 63.14 65.81 61.42 63.36 67.39 70.20 71.43 72.07 73.21 73.93 74.33 74.22 74.80 74.40 75.72 77.08 77.11 77.08 77.41 77.12 77.01 77.37 77.37 77.48 77.41 77.33 77.42 77.43 77.41 77.33 77.37 77.23 77.11 76.82 76.60 76.14 75.89 75.70
66.04 62.01 57.67 58.52 57.20 58.06 64.25 65.01 66.68 65.08 63.57 67.40 66.84 61.00 61.14 67.21 70.05 71.35 71.98 72.04 72.76 73.45 73.87 73.31 73.02 73.34 74.04 74.53 77.34 77.43 77.12 77.59 77.51 77.31 77.38 77.38 77.37 77.43 77.18 77.83 77.51 77.03 77.26 76.78 76.67 76.25 76.03 75.59 74.95
66.61 57.88 55.68 57.28 58.03 60.96 65.44 63.97 67.01 68.06 64.53 65.92 66.54 65.31 66.48 67.45 70.56 70.59 69.89 69.67 71.18 72.81 71.91 72.36 73.17 71.62 72.96 73.59 75.45 76.94 77.52 77.31 77.51 77.15 77.48 77.43 75.08 75.55 75.32 76.21 76.90 76.97 76.53 75.53 76.39 76.25 76.02 75.31 75.77
61.44 57.32 58.35 62.97 62.71 62.20 64.76 64.52 65.21 64.53 63.26 64.06 64.57 67.05 66.76 68.65 69.21 68.22 67.65 67.38 69.40 70.21 71.54 72.00 71.90 71.37 72.75 74.89 73.67 73.38 74.63 74.18 73.76 73.96 73.55 73.48 73.43 74.26 74.84 75.71 76.79 76.77 76.38 76.30 75.92 76.13 76.64 72.76 70.41
61.49 57.00 62.02 62.89 65.40 65.87 64.69 64.57 65.68 63.45 61.57 63.35 62.71 63.90 66.81 67.47 67.85 67.63 66.91 67.40 67.65 70.46 71.59 71.67 71.37 70.53 71.41 72.09 72.55 72.66 73.13 72.83 72.64 72.54 71.63 70.93 71.93 70.86 72.55 73.29 74.20 74.40 74.83 72.87 73.81 72.88 70.96 69.75 69.27
58.80 62.27 62.52 64.03 66.18 65.62 63.90 65.18 63.92 64.74 65.18 66.73 66.05 65.45 66.29 66.06 66.42 67.03 66.00 65.76 66.72 69.51 70.31 70.29 70.42 69.18 69.17 71.10 71.86 71.81 71.69 72.42 72.09 71.94 71.63 70.50 70.60 69.86 71.58 73.01 72.83 72.26 70.86 70.61 70.84 69.92 67.65 68.11 68.93
60.02 61.83 63.91 65.16 65.38 65.12 66.63 64.68 63.83 63.94 66.61 67.36 66.78 64.88 65.05 65.03 66.55 67.76 67.95 67.70 67.34 67.72 68.09 69.71 69.39 68.95 69.63 69.81 71.08 70.97 70.74 71.98 72.00 71.79 71.27 72.09 70.96 69.65 72.15 71.55 72.22 70.23 68.29 70.12 69.40 69.62 68.90 67.33 68.43
62.99 63.29 63.34 64.70 65.87 66.37 64.62 64.27 64.95 64.15 66.27 65.68 64.61 61.92 63.74 63.05 65.09 65.76 67.20 67.67 67.89 67.93 67.90 69.61 69.39 69.37 70.05 70.13 70.95 70.49 69.95 70.78 71.82 71.80 71.33 71.87 71.25 69.74 69.92 69.76 70.51 70.51 67.87 69.28 69.60 69.76 69.18 68.21 68.12
63.09 59.96 61.76 63.15 64.73 64.75 65.54 61.65 61.95 64.64 64.76 62.87 61.30 60.19 62.34 62.95 63.57 65.09 66.47 67.74 68.88 68.78 68.50 68.76 69.93 70.32 69.97 70.21 71.17 70.37 69.58 70.58 72.39 71.86 71.18 71.11 71.27 70.09 68.47 69.40 69.94 69.69 67.47 68.62 69.18 69.58 69.70 67.76 68.23
58.61 59.53 55.38 62.76 63.90 64.92 61.77 56.01 62.82 65.06 63.50 61.17 59.67 60.25 60.42 62.02 63.23 64.53 65.39 66.97 66.97 66.74 67.78 69.33 72.28 70.67 70.96 69.92 70.61 71.23 71.65 71.30 71.43 72.23 71.22 70.63 70.76 70.13 69.20 69.27 68.75 68.74 70.17 69.79 69.86 69.74 68.66 67.73 67.40
54.45 50.64 54.24 59.62 63.64 63.08 60.79 57.86 63.34 64.87 62.62 60.19 58.86 58.86 59.62 60.67 61.15 61.80 64.95 64.71 64.51 65.23 66.03 66.91 70.15 70.10 70.47 69.31 69.89 70.72 70.79 71.69 73.29 72.70 71.37 70.90 71.58 71.30 69.56 69.49 69.29 70.14 70.03 70.15 70.62 68.95 68.32 68.05 67.89
49.89 51.49 52.55 56.07 59.02 61.73 59.54 58.94 62.41 63.87 62.83 60.62 59.36 59.01 59.11 58.71 59.88 61.40 64.93 65.03 65.10 65.99 65.96 65.20 68.93 69.27 69.82 69.34 69.13 68.65 67.92 70.24 73.04 73.37 72.18 71.74 71.84 72.01 70.98 69.87 69.15 69.49 68.84 68.68 69.67 69.53 69.00 68.12 67.89
52.44 51.12 51.50 57.34 59.35 58.78 58.91 59.41 60.92 62.73 63.00 61.58 60.44 60.06 60.27 59.54 61.18 62.21 64.18 64.90 64.73 66.78 67.28 65.45 67.01 67.45 69.76 68.65 67.47 66.49 64.56 69.81 71.46 71.72 72.94 71.92 72.06 72.53 70.62 69.79 68.97 69.76 68.30 68.32 68.97 69.81 69.09 67.87 68.66
53.20 51.69 51.77 57.42 59.28 58.61 58.21 57.99 60.96 62.36 62.38 62.40 61.68 61.53 61.49 60.60 61.43 61.95 62.39 63.78 64.97 66.41 67.06 66.17 67.79 67.74 69.30 69.11 68.46 68.35 68.31 70.08 70.78 72.84 73.32 72.47 71.87 72.49 70.66 69.47 69.27 69.00 68.28 67.87 69.00 69.92 68.88 67.83 68.48
49.05 50.18 49.23 54.44 59.67 60.16 58.00 55.10 57.77 61.02 62.45 62.83 63.37 63.40 63.33 63.16 62.07 61.90 61.72 63.60 65.04 65.53 67.15 65.84 68.61 68.69 69.53 69.52 68.83 69.47 70.53 70.42 69.28 70.71 72.09 72.66 72.22 72.11 71.74 70.75 69.56 68.70 68.05 68.25 68.43 70.21 68.64 66.74 67.69
44.63 50.80 55.15 58.34 54.93 51.25 57.13 47.39 53.43 57.54 59.02 60.92 62.08 62.58 63.11 63.64 63.70 62.53 62.06 62.44 64.25 65.18 67.16 66.37 68.60 69.73 68.69 69.16 68.28 67.44 67.51 67.92 68.97 68.54 71.22 71.39 72.48 72.36 72.22 71.91 71.48 69.88 68.91 68.68 69.09 70.19 70.33 69.13 66.57
46.07 57.21 58.13 58.59 53.08 52.36 52.37 49.40 51.03 57.06 56.70 58.84 61.17 62.38 63.44 64.02 64.62 62.37 62.66 63.21 64.55 65.72 65.63 65.30 66.19 67.54 68.35 68.22 68.24 67.81 67.14 67.93 68.46 69.19 70.12 70.85 70.82 71.26 71.33 70.35 70.20 71.42 70.60 70.46 70.03 69.99 69.36 70.31 69.16
49.72 48.98 46.96 45.99 48.75 45.72 50.43 48.50 46.28 52.08 57.75 59.52 61.78 62.97 63.80 64.14 64.53 64.68 64.38 64.47 64.52 65.58 65.74 65.74 64.25 63.04 65.38 68.10 67.76 67.63 67.90 68.25 68.74 68.64 68.28 69.56 69.49 69.40 67.39 68.01 68.67 68.99 70.69 71.71 71.86 71.61 70.80 69.38 70.07
45.45 41.67 36.58 36.05 38.72 40.01 43.92 46.28 47.40 54.77 56.98 57.50 61.72 63.02 64.22 65.05 64.92 63.52 62.67 63.51 64.11 64.58 65.48 65.67 64.56 63.90 63.90 64.80 67.84 67.48 67.41 68.33 69.03 69.22 68.03 66.28 65.51 65.16 66.08 66.52 66.67 67.47 69.54 71.18 71.14 70.98 70.28 70.23 69.89
45.80 42.55 38.37 36.00 37.46 41.83 45.83 44.90 49.34 56.17 58.70 59.48 62.99 64.00 64.00 64.95 65.57 65.22 63.70 63.00 63.44 64.67 65.41 65.64 64.74 64.38 64.39 64.49 64.75 67.95 69.07 69.11 69.31 70.13 67.85 67.22 64.91 65.41 66.63 67.30 67.46 68.02 69.31 69.34 71.28 70.42 70.72 69.83 69.79
43.74 43.70 45.87 43.37 42.38 42.20 44.70 49.44 53.59 56.03 57.45 59.62 61.01 61.39 62.37 63.75 65.64 65.88 66.52 66.72 66.41 66.18 65.91 65.65 65.09 64.71 64.38 64.80 64.16 65.79 68.17 69.68 70.23 70.67 69.90 68.55 68.27 69.27 69.66 68.15 68.27 68.67 69.39 69.67 70.89 70.85 69.88 70.01 69.40
48.18 47.53 42.54 41.91 39.58 38.24 42.54 44.20 46.34 51.60 54.04 58.08 59.87 60.93 62.35 64.63 65.11 65.32 66.15 67.26 67.45 67.90 67.88 66.69 65.72 65.08 65.25 65.41 65.79 66.86 68.29 69.19 70.27 70.31 71.05 71.06 69.62 69.67 70.98 70.79 70.16 69.06 69.65 69.76 71.13 70.89 70.40 69.74 69.76
47.12 45.22 40.57 40.05 43.04 39.89 38.40 42.94 49.75 52.73 55.02 56.20 58.37 60.24 61.96 64.21 64.34 65.21 65.06 64.75 64.60 65.71 67.69 67.60 65.65 65.05 65.90 66.68 66.77 67.46 68.11 70.32 71.28 70.89 71.31 72.27 72.35 72.59 72.26 71.90 70.95 69.74 69.83 68.93 69.35 71.29 71.16 69.85 69.87
47.96 45.90 41.25 39.29 41.17 42.27 41.63 43.89 53.76 54.78 56.54 58.46 58.34 58.48 59.48 63.13 63.23 62.48 62.07 62.84 62.89 64.63 65.74 66.49 65.74 65.53 66.50 67.10 67.80 68.35 68.49 68.73 70.91 72.53 73.04 73.06 72.36 73.22 73.51 71.97 71.52 70.64 70.43 69.76 68.82 69.23 71.09 70.66 69.97
MSLP
1009.25 1009.41 1009.63 1009.75 1010.23 1009.57 1008.92 1008.14 1007.35 1007.45 1007.70 1007.80 1008.49 1008.95 1009.80 1010.48 1011.14 1012.45 1012.13 1012.50 1012.73 1013.46 1013.68 1013.88 1013.97 1014.11 1014.13 1014.16 1014.30 1014.44 1014.50 1014.62 1014.67 1014.78 1014.94 1015.10 1015.25 1015.34 1015.50 1015.57 1015.81 1015.92 1015.90 1015.99 1016.00 1016.19 1016.44 1016.55 1016.73
1009.29 1009.72 1009.90 1009.90 1010.08 1009.45 1008.74 1007.87 1007.44 1007.49 1007.74 1008.03 1008.71 1009.24 1009.88 1010.88 1011.32 1011.93 1012.40 1012.70 1012.74 1013.31 1013.70 1013.99 1014.10 1014.19 1014.26 1014.27 1014.34 1014.48 1014.57 1014.73 1014.84 1014.89 1015.05 1015.21 1015.34 1015.47 1015.70 1015.84 1015.94 1016.05 1016.10 1016.18 1016.29 1016.41 1016.60 1016.76 1016.87
1009.57 1009.66 1010.00 1009.79 1009.61 1009.03 1008.42 1007.78 1007.66 1007.79 1007.78 1007.98 1008.82 1009.55 1010.35 1011.40 1011.78 1012.13 1012.28 1012.72 1013.00 1013.56 1013.90 1014.04 1014.26 1014.32 1014.49 1014.35 1014.47 1014.61 1014.71 1014.82 1014.96 1015.04 1015.14 1015.33 1015.45 1015.57 1015.80 1016.02 1016.20 1016.33 1016.35 1016.50 1016.56 1016.70 1016.86 1017.01 1017.20
1009.54 1009.75 1009.80 1009.53 1009.04 1008.17 1007.68 1007.44 1007.40 1007.70 1008.02 1008.41 1009.03 1010.16 1010.78 1011.02 1011.81 1012.04 1012.50 1012.97 1013.47 1013.88 1014.10 1014.18 1014.32 1014.41 1014.52 1014.60 1014.61 1014.65 1014.73 1014.87 1015.02 1015.11 1015.33 1015.46 1015.58 1015.72 1015.93 1016.17 1016.49 1016.66 1016.73 1016.87 1016.86 1016.90 1017.10 1017.33 1017.43
1009.64 1009.75 1009.76 1009.20 1008.43 1007.51 1007.16 1007.12 1007.34 1007.61 1008.12 1008.76 1009.12 1010.76 1011.40 1011.77 1011.92 1012.60 1012.98 1013.35 1013.74 1014.21 1014.29 1014.52 1014.47 1014.54 1014.70 1014.72 1014.73 1014.81 1014.84 1014.88 1015.04 1015.25 1015.39 1015.52 1015.64 1015.81 1016.03 1016.31 1016.54 1016.72 1016.90 1017.10 1017.22 1017.40 1017.61 1017.78 1017.80
1009.65 1010.15 1009.79 1009.05 1007.83 1007.17 1006.89 1006.70 1007.06 1007.47 1008.30 1008.96 1009.73 1010.56 1011.87 1012.05 1012.42 1013.05 1013.30 1013.66 1013.86 1014.31 1014.51 1014.68 1014.70 1014.76 1014.82 1014.79 1014.77 1014.94 1014.82 1014.85 1015.06 1015.24 1015.43 1015.70 1015.84 1015.97 1016.19 1016.33 1016.53 1016.66 1016.98 1017.17 1017.47 1017.61 1017.84 1017.98 1017.92
1010.09 1010.32 1009.84 1008.96 1007.87 1007.06 1006.43 1006.34 1006.81 1007.39 1008.20 1008.96 1009.26 1010.65 1012.05 1012.42 1012.57 1013.01 1013.54 1013.97 1014.31 1014.50 1014.74 1014.90 1014.96 1015.01 1014.97 1014.92 1014.97 1014.99 1015.12 1015.08 1015.14 1015.27 1015.58 1015.89 1016.09 1016.20 1016.32 1016.52 1016.76 1016.81 1016.97 1017.16 1017.43 1017.58 1017.90 1018.10 1018.15
1010.14 1010.16 1009.69 1008.46 1007.32 1006.30 1005.77 1006.15 1006.46 1007.16 1008.08 1008.85 1009.20 1010.34 1011.70 1011.92 1012.58 1013.30 1013.95 1014.41 1014.76 1015.02 1015.04 1015.22 1015.38 1015.38 1015.26 1015.19 1015.22 1015.22 1015.46 1015.42 1015.43 1015.53 1015.79 1016.05 1016.16 1016.34 1016.58 1016.72 1016.92 1017.08 1017.07 1017.33 1017.63 1017.70 1017.80 1018.04 1018.25
1010.28 1010.08 1009.15 1007.60 1006.63 1005.66 1005.54 1006.00 1006.60 1007.10 1008.14 1008.71 1009.32 1009.69 1010.58 1011.86 1012.76 1013.58 1014.38 1014.98 1015.21 1015.46 1015.58 1015.39 1015.55 1015.77 1015.51 1015.52 1015.46 1015.47 1015.68 1015.78 1015.77 1015.81 1016.04 1016.26 1016.56 1016.58 1016.86 1016.95 1016.88 1017.11 1017.25 1017.57 1017.79 1017.94 1018.14 1018.27 1018.50
1010.20 1010.42 1008.46 1006.72 1005.64 1005.37 1005.40 1005.78 1006.29 1007.48 1008.50 1009.07 1009.60 1010.04 1011.09 1012.12 1012.98 1013.76 1014.40 1015.00 1015.43 1015.66 1015.73 1015.80 1015.76 1016.00 1015.74 1015.64 1015.79 1015.86 1016.05 1016.34 1016.44 1016.41 1016.67 1016.90 1017.00 1017.11 1017.10 1017.13 1017.28 1017.36 1017.48 1017.74 1017.90 1018.14 1018.43 1018.85 1019.15
1010.13 1009.24 1007.80 1006.14 1005.51 1004.72 1005.34 1005.84 1006.37 1007.35 1008.46 1008.85 1009.44 1010.31 1011.26 1012.25 1013.12 1013.76 1014.21 1014.50 1014.94 1015.44 1015.66 1015.70 1015.98 1016.11 1015.84 1015.92 1016.12 1016.23 1016.41 1016.77 1016.85 1016.98 1017.36 1017.40 1017.52 1017.74 1017.75 1017.78 1017.65 1017.62 1017.84 1018.27 1018.32 1018.64 1018.90 1019.20 1019.51
1009.15 1007.84 1007.17 1005.99 1005.46 1005.33 1005.46 1005.87 1006.71 1007.22 1007.77 1008.10 1009.22 1009.81 1010.86 1012.16 1013.04 1013.60 1014.08 1014.71 1015.20 1015.45 1015.46 1015.70 1015.88 1016.17 1015.96 1016.14 1016.28 1016.41 1016.58 1016.81 1017.12 1017.36 1017.60 1017.66 1017.73 1017.84 1018.00 1018.16 1018.17 1018.22 1018.32 1018.50 1018.81 1019.08 1019.30 1019.49 1019.62
1008.37 1007.00 1006.32 1005.59 1005.08 1005.33 1005.47 1006.41 1007.15 1008.10 1008.31 1008.74 1009.92 1010.88 1011.61 1012.16 1013.02 1013.64 1013.94 1014.47 1015.04 1015.28 1015.39 1015.59 1015.90 1016.10 1015.90 1016.26 1016.42 1016.58 1016.83 1016.95 1017.12 1017.44 1017.59 1017.72 1017.79 1018.06 1018.18 1018.30 1018.41 1018.60 1018.74 1018.96 1019.18 1019.22 1019.34 1019.79 1019.85
1007.35 1006.68 1006.05 1005.17 1004.92 1005.35 1005.88 1007.13 1007.59 1009.07 1009.20 1009.60 1010.37 1011.22 1011.86 1012.38 1012.94 1013.64 1014.02 1014.45 1014.85 1015.04 1015.30 1015.59 1015.82 1015.82 1015.94 1016.34 1016.50 1016.65 1016.88 1016.99 1017.15 1017.48 1017.60 1017.74 1017.80 1017.98 1018.26 1018.42 1018.48 1018.60 1018.80 1019.14 1019.36 1019.26 1019.49 1019.75 1019.95
1007.10 1006.30 1005.47 1005.04 1005.24 1005.86 1006.19 1007.61 1008.46 1009.34 1009.86 1010.43 1011.23 1011.86 1012.25 1012.63 1013.12 1013.43 1013.82 1014.19 1014.50 1014.93 1015.32 1015.66 1015.86 1015.86 1016.16 1016.34 1016.49 1016.71 1016.76 1016.87 1016.78 1017.25 1017.58 1017.76 1017.80 1017.90 1018.19 1018.46 1018.56 1018.65 1018.72 1018.86 1019.31 1019.33 1019.36 1019.82 1019.95
1007.13 1006.63 1006.13 1005.28 1005.50 1005.94 1006.33 1008.58 1009.49 1009.95 1010.32 1011.12 1011.74 1012.26 1012.66 1012.93 1013.19 1013.59 1013.92 1014.16 1014.60 1015.02 1015.44 1015.66 1015.73 1015.88 1016.12 1016.35 1016.49 1016.55 1016.61 1016.71 1016.76 1016.99 1017.28 1017.61 1017.78 1017.86 1018.27 1018.51 1018.55 1018.67 1018.74 1018.68 1018.90 1019.38 1019.55 1019.81 1019.92
1007.18 1006.81 1006.36 1005.58 1005.78 1006.29 1007.06 1008.85 1009.54 1010.14 1010.62 1011.36 1011.91 1012.52 1012.87 1013.17 1013.54 1013.70 1013.84 1014.14 1014.52 1015.06 1015.29 1015.54 1015.62 1015.92 1016.14 1016.36 1016.60 1016.63 1016.54 1016.45 1016.61 1016.92 1017.24 1017.70 1017.82 1017.81 1018.16 1018.42 1018.46 1018.50 1018.73 1018.73 1018.80 1019.05 1019.47 1019.75 1019.92
1007.23 1006.86 1006.22 1005.78 1006.05 1006.46 1007.29 1008.31 1009.27 1009.91 1010.53 1011.30 1011.88 1012.43 1013.00 1013.17 1013.29 1013.58 1013.82 1014.09 1014.37 1014.76 1015.18 1015.41 1015.60 1015.92 1016.41 1016.71 1016.87 1016.82 1016.66 1016.60 1016.56 1016.86 1017.21 1017.52 1017.73 1017.76 1017.87 1018.17 1018.34 1018.39 1018.72 1018.82 1018.90 1019.13 1019.36 1019.64 1019.82
1006.85 1006.44 1005.81 1006.02 1006.02 1006.81 1007.53 1008.42 1009.17 1009.78 1010.48 1011.26 1011.90 1012.11 1012.31 1012.47 1012.71 1013.13 1013.45 1013.83 1014.16 1014.51 1014.90 1015.29 1015.82 1015.95 1016.42 1016.80 1017.06 1017.02 1016.90 1016.72 1016.76 1016.93 1016.85 1016.82 1017.15 1017.49 1017.65 1017.92 1018.18 1018.34 1018.58 1018.64 1018.90 1019.20 1019.30 1019.69 1019.74
1006.24 1006.30 1005.67 1006.26 1006.20 1006.67 1008.23 1008.84 1009.28 1009.58 1009.89 1010.32 1010.98 1011.56 1011.67 1011.99 1012.38 1012.73 1013.01 1013.43 1013.80 1014.19 1014.61 1015.16 1015.53 1015.95 1016.22 1016.41 1016.65 1016.61 1016.72 1016.53 1016.46 1016.31 1016.53 1016.69 1016.92 1017.10 1017.30 1017.63 1017.97 1018.00 1018.46 1018.83 1018.93 1019.18 1019.43 1019.59 1019.75
1005.05 1005.18 1005.15 1005.46 1006.14 1006.95 1008.38 1009.42 1009.78 1009.95 1009.98 1010.36 1010.84 1010.88 1011.11 1011.39 1011.76 1012.19 1012.64 1012.88 1013.14 1013.56 1014.17 1014.81 1015.18 1015.62 1015.93 1016.26 1016.56 1016.77 1016.71 1016.57 1016.45 1016.47 1016.71 1016.41 1016.62 1017.14 1017.37 1017.66 1018.02 1018.17 1018.39 1018.54 1019.04 1019.16 1019.11 1019.54 1019.76
1003.53 1002.94 1003.84 1004.98 1005.98 1007.60 1008.14 1009.64 1009.82 1009.59 1009.72 1009.92 1010.10 1010.38 1010.53 1010.65 1010.99 1011.48 1011.76 1012.26 1012.68 1012.94 1013.65 1014.26 1014.64 1015.14 1015.55 1016.04 1016.38 1016.78 1016.84 1016.72 1016.47 1016.62 1016.61 1016.54 1016.47 1016.58 1016.65 1016.84 1017.22 1017.66 1018.16 1018.56 1018.62 1018.77 1019.02 1019.28 1019.35
1002.77 1002.28 1003.51 1004.78 1006.49 1007.70 1008.91 1009.61 1009.17 1009.09 1009.29 1009.14 1009.10 1009.36 1009.56 1009.71 1009.91 1010.26 1010.75 1011.15 1011.69 1012.52 1013.20 1013.88 1014.38 1014.87 1015.22 1015.68 1015.96 1016.45 1016.70 1016.51 1016.34 1016.62 1016.64 1016.45 1016.27 1016.08 1016.26 1016.54 1016.77 1017.00 1017.45 1017.86 1018.08 1018.35 1018.58 1018.63 1018.73
1002.16 1003.24 1004.70 1006.18 1007.49 1008.82 1008.64 1009.20 1009.29 1008.90 1007.90 1008.02 1008.33 1008.45 1008.43 1008.77 1009.41 1009.64 1010.02 1010.68 1011.27 1012.02 1012.82 1013.47 1014.11 1014.56 1014.89 1015.36 1015.68 1015.94 1016.22 1016.20 1016.34 1016.70 1016.68 1016.50 1016.33 1016.16 1016.28 1016.16 1015.99 1016.34 1016.86 1017.12 1017.14 1017.49 1017.86 1018.03 1018.27
1001.65 1003.50 1006.09 1007.85 1008.70 1008.91 1008.76 1009.31 1008.24 1007.19 1007.13 1006.95 1006.70 1006.82 1007.53 1007.90 1008.60 1009.33 1010.02 1010.71 1011.15 1011.58 1012.19 1012.91 1013.55 1014.08 1014.43 1014.76 1015.10 1015.22 1015.46 1015.68 1015.82 1016.22 1016.45 1016.46 1016.53 1016.04 1015.68 1015.60 1015.82 1016.24 1016.80 1016.66 1016.79 1017.08 1017.18 1017.46 1017.57
1001.65 1002.96 1004.85 1006.76 1008.43 1008.99 1008.76 1008.60 1006.89 1006.62 1006.77 1006.89 1006.35 1006.39 1007.24 1007.78 1008.26 1008.84 1009.33 1009.89 1010.67 1011.33 1011.48 1012.11 1012.88 1013.28 1013.63 1014.02 1014.28 1014.54 1014.84 1015.15 1015.27 1015.56 1015.82 1016.01 1016.08 1015.53 1015.29 1015.22 1015.30 1015.39 1016.02 1016.42 1016.42 1016.73 1016.75 1016.90 1017.21
1001.43 1002.53 1003.44 1006.04 1008.32 1009.00 1009.17 1008.23 1006.56 1006.42 1006.94 1007.24 1007.28 1006.87 1007.13 1007.28 1007.44 1008.03 1008.50 1009.17 1009.81 1010.43 1011.09 1011.68 1012.12 1012.70 1013.22 1013.53 1013.85 1014.20 1014.21 1014.64 1014.81 1015.16 1015.42 1015.58 1015.65 1015.41 1015.48 1015.43 1015.45 1015.52 1015.55 1016.03 1016.20 1016.20 1016.24 1016.39 1016.64
1000.55 1001.80 1003.77 1006.08 1008.32 1009.52 1009.33 1008.70 1007.03 1006.12 1007.11 1007.63 1007.97 1007.80 1007.18 1007.34 1007.24 1007.63 1007.93 1008.30 1009.08 1009.67 1010.24 1010.86 1011.73 1012.24 1012.95 1013.64 1014.06 1014.27 1014.22 1014.23 1014.52 1014.57 1014.96 1015.13 1015.16 1015.13 1015.07 1015.01 1015.07 1015.35 1015.37 1015.52 1015.62 1015.62 1015.70 1015.96 1016.10
1001.22 1002.03 1004.05 1005.94 1007.48 1008.76 1009.19 1008.18 1005.56 1006.02 1007.07 1007.55 1007.72 1007.64 1007.05 1007.48 1007.54 1007.50 1007.95 1008.14 1008.55 1008.98 1009.32 1009.78 1010.58 1011.98 1012.66 1013.00 1014.02 1013.87 1014.12 1013.63 1013.83 1014.24 1014.20 1014.33 1014.44 1014.38 1014.27 1014.23 1014.31 1014.59 1014.88 1015.01 1015.15 1015.05 1015.10 1015.42 1015.59
1000.78 1001.64 1003.33 1005.73 1007.70 1008.34 1008.39 1006.75 1005.58 1005.60 1006.26 1006.63 1007.06 1007.28 1007.03 1007.43 1007.95 1008.25 1008.04 1007.96 1008.24 1008.55 1008.54 1008.64 1009.55 1010.59 1011.42 1012.22 1013.30 1013.32 1013.35 1013.58 1013.63 1013.54 1013.52 1013.66 1013.76 1013.61 1013.68 1013.74 1013.82 1013.92 1014.06 1014.27 1014.59 1014.66 1014.59 1014.78 1015.02
Wind_Speed
8 5 1 1 2 1 2 3 2 4 3 3 10 2 5 3 1 3 6 8 13 10 8 10 12 12 12 11 11 11 11 12 12 13 13 13 12 13 13 13 14 14 15 18 18 17 17 16 16
4 3 1 2 1 2 2 4 2 2 7 11 8 4 6 4 5 11 7 10 14 11 6 7 12 13 12 12 10 9 10 10 11 13 13 11 11 12 11 13 13 13 14 15 16 16 16 15 16
6 5 1 2 1 2 4 2 10 9 5 4 6 5 4 3 11 10 11 14 13 10 7 9 13 13 11 12 10 9 9 9 10 12 13 11 11 12 13 14 12 12 13 14 14 14 14 15 14
3 2 2 1 3 3 4 5 9 7 5 6 12 8 4 8 10 7 14 15 12 9 7 13 15 13 11 10 10 10 9 10 11 12 12 12 13 13 12 15 13 14 12 11 13 13 14 13 14
2 1 2 3 0 2 3 9 7 3 4 5 2 5 7 8 14 16 14 13 12 8 8 10 13 13 12 11 10 9 8 10 14 13 13 12 13 14 14 13 12 12 13 12 12 12 12 11 10
1 2 1 1 1 2 1 10 7 4 6 7 11 9 3 13 17 13 13 12 11 9 8 8 13 13 12 11 12 10 10 15 17 15 14 13 13 14 15 13 12 13 11 11 11 11 10 9 7
3 2 1 2 2 3 5 6 7 7 9 6 13 6 4 12 16 14 12 12 9 8 6 5 5 10 13 12 12 11 13 17 16 16 14 13 13 13 13 12 11 12 11 10 10 10 9 8 6
2 2 3 2 4 5 7 7 9 7 5 14 8 6 9 13 15 13 11 10 8 6 5 5 2 4 5 5 12 13 13 15 14 15 14 13 13 12 11 10 11 11 11 9 9 10 10 8 7
2 4 4 3 2 1 10 6 10 10 13 4 5 5 18 17 18 15 12 8 7 5 2 4 5 4 5 5 7 11 13 13 13 12 13 9 3 5 7 7 11 10 9 8 7 8 8 10 10
3 1 5 9 5 2 9 5 9 6 10 4 10 19 18 20 18 16 15 11 9 7 4 3 4 5 5 4 4 4 4 3 3 4 5 3 4 3 5 7 8 9 7 6 6 8 10 7 4
6 6 5 8 8 8 11 9 3 12 7 6 22 21 19 20 17 16 15 16 13 10 6 6 5 5 5 4 3 2 2 2 1 3 5 3 3 3 3 2 2 2 6 3 3 5 3 4 3
4 11 9 7 3 3 9 5 3 5 1 14 17 22 22 19 17 17 15 11 11 12 9 5 5 6 5 3 3 3 3 3 2 3 5 3 2 3 3 2 3 2 2 4 3 2 4 4 4
3 5 7 10 13 10 5 6 5 7 8 17 19 16 16 15 15 13 13 13 13 12 10 9 7 6 5 5 3 3 2 2 3 4 4 3 3 2 3 2 3 2 1 2 2 3 3 4 1
2 9 12 6 5 6 11 4 5 5 12 17 17 13 15 14 14 11 13 11 13 11 9 10 9 6 6 5 5 3 3 3 3 3 3 4 3 4 3 3 3 3 2 2 1 1 2 3 2
5 7 5 3 5 7 14 5 5 11 11 15 11 9 13 11 9 12 14 13 13 10 7 8 6 6 6 5 4 4 3 3 4 4 5 5 4 4 4 3 3 3 3 2 1 2 1 2 2
0 3 4 1 7 8 6 2 8 9 12 11 9 8 9 9 11 8 9 10 6 8 8 8 8 6 6 6 5 3 1 3 4 4 4 5 5 4 3 3 3 3 3 2 1 1 1 2 3
3 2 4 1 3 2 4 4 11 10 10 10 10 7 7 8 8 5 7 8 8 7 8 7 6 7 6 5 4 3 2 1 2 4 4 5 4 5 4 4 4 3 2 1 2 1 2 1 1
3 3 5 5 3 5 5 5 14 13 12 11 10 9 7 7 10 9 8 7 8 7 7 7 6 7 5 3 3 1 1 0 2 3 4 6 5 6 4 3 4 4 3 3 1 1 1 1 1
5 5 6 2 6 5 4 11 15 13 10 10 9 10 11 12 8 8 12 10 8 7 6 9 7 6 5 2 2 1 2 1 0 3 6 7 5 6 5 4 4 3 4 3 3 1 1 2 2
9 10 11 4 8 7 5 7 9 14 13 15 15 14 14 11 10 8 9 9 11 13 9 7 8 7 6 3 2 2 2 1 2 2 5 5 6 6 5 5 5 5 3 3 3 3 3 2 3
7 9 7 9 6 8 8 2 5 6 6 8 11 13 13 14 15 14 12 13 12 11 10 8 8 9 7 6 2 2 1 1 1 2 2 6 4 2 3 4 3 3 3 3 3 3 5 3 3
4 8 10 15 7 6 3 3 4 6 9 12 13 12 13 14 13 14 16 14 12 12 10 9 9 10 7 7 4 4 3 3 2 1 1 2 6 6 7 7 7 7 4 5 5 4 4 3 4
6 7 10 8 7 6 3 4 5 7 9 13 15 15 15 15 17 18 18 18 17 12 10 11 10 8 7 7 7 5 5 4 2 1 2 3 5 6 6 5 6 6 6 7 7 5 7 5 3
7 7 12 7 4 3 7 7 5 5 12 11 12 16 17 15 15 16 17 16 15 12 10 10 12 8 8 8 8 9 8 7 3 3 3 4 3 4 5 7 7 4 4 6 6 7 6 6 4
5 7 3 2 2 6 0 2 9 10 8 12 19 19 16 15 14 13 13 12 12 14 12 11 12 13 11 12 10 10 10 8 8 6 5 5 3 4 6 6 4 2 4 4 4 5 5 6 5
2 6 7 3 4 3 1 5 8 3 5 6 6 9 9 13 12 13 14 13 12 12 14 13 12 13 13 12 12 9 9 7 7 5 5 5 5 6 6 5 5 5 4 5 5 5 6 5 5
1 1 5 9 3 4 4 6 8 7 6 2 3 6 10 9 13 14 13 13 11 12 12 12 11 9 8 10 8 8 6 7 6 6 7 6 6 6 6 6 5 6 5 6 7 6 7 6 6
5 6 3 4 5 2 4 5 9 6 5 6 5 5 6 7 11 10 11 13 9 8 8 9 8 9 8 6 5 4 6 7 8 6 8 8 8 8 7 7 7 6 7 6 6 6 5 7 6
2 2 7 6 5 7 3 9 6 8 7 8 9 8 8 8 6 8 8 7 8 7 10 11 11 10 8 8 6 6 8 8 8 8 9 9 8 10 10 8 7 6 8 7 7 8 6 8 8
3 3 6 7 3 2 4 8 1 7 9 8 8 6 5 3 1 3 6 5 6 7 9 14 10 12 11 10 7 10 8 7 9 11 11 7 8 8 8 7 8 7 8 7 9 9 9 10 9
Wind_Direction
185 183 132 329 14 304 231 236 116 102 83 334 138 187 144 30 90 183 137 147 133 140 158 146 147 144 138 128 123 122 118 116 115 109 105 105 117 117 123 119 113 115 116 119 115 118 114 115 115
149 153 290 260 144 103 280 320 57 44 121 96 79 59 50 81 71 118 111 146 137 139 141 145 147 149 142 133 134 128 123 123 123 117 113 114 121 120 121 124 119 122 114 112 114 116 117 121 122
155 233 227 188 194 217 182 330 120 129 138 98 111 58 74 79 112 130 130 137 135 130 137 150 149 146 147 137 129 126 125 127 131 128 125 121 121 118 129 126 124 116 118 120 119 119 124 124 125
219 185 262 113 243 248 139 179 152 127 78 61 107 78 85 125 141 140 136 134 127 130 139 151 153 150 139 133 125 127 128 129 135 135 129 126 126 124 128 128 132 123 121 120 122 126 121 124 125
271 8 354 289 25 222 162 171 150 124 88 113 106 71 92 136 108 128 133 131 134 136 140 153 153 140 139 127 126 119 122 141 139 137 134 131 129 125 128 127 128 129 126 126 128 128 125 128 132
13 81 17 324 58 136 128 167 156 116 106 111 101 104 92 134 130 146 134 135 140 136 145 153 152 144 135 130 124 122 119 132 138 141 136 131 126 130 129 136 132 127 132 126 129 133 132 129 121
89 19 245 294 255 145 180 168 130 134 132 124 141 90 97 148 146 141 135 134 135 130 130 133 155 141 137 131 126 122 116 127 136 136 135 132 132 133 137 136 136 137 135 135 138 138 133 126 105
110 64 318 244 213 213 162 163 133 130 130 127 146 146 158 157 146 126 124 129 128 134 132 130 145 119 119 127 133 129 127 130 134 136 137 139 140 138 142 144 149 142 140 143 139 140 135 124 98
67 27 316 272 255 216 141 162 145 102 134 183 166 138 142 144 132 124 119 116 120 120 132 155 141 154 137 126 143 138 138 142 141 142 144 128 123 127 118 155 148 147 141 138 137 134 117 99 87
84 74 271 289 163 197 158 144 140 114 159 40 91 115 128 137 141 138 143 148 149 152 178 191 151 171 154 144 126 139 142 72 87 120 108 79 97 127 142 155 149 130 130 128 148 125 105 86 69
173 214 234 291 347 143 144 134 95 125 198 177 145 143 139 143 149 152 152 163 169 169 178 183 188 186 167 145 150 133 118 115 151 114 83 108 97 57 51 45 92 106 108 63 70 79 65 83 86
216 236 250 288 331 169 151 105 102 131 172 150 150 145 141 147 157 161 162 159 158 174 186 185 195 186 187 148 163 163 151 166 164 151 132 156 151 141 122 103 102 89 114 116 100 82 108 90 73
227 275 263 268 267 224 139 78 82 40 102 124 125 131 140 145 157 162 162 162 162 177 189 192 194 189 182 166 178 167 193 204 191 158 172 181 175 177 127 136 107 145 102 120 128 146 143 128 90
212 266 281 282 90 131 113 123 91 72 116 127 133 128 145 137 153 153 162 160 171 174 191 194 205 186 173 170 182 190 196 220 199 156 175 184 196 158 147 140 153 166 200 120 170 236 188 146 185
284 309 349 294 128 112 119 40 68 128 127 124 126 127 140 135 131 153 166 171 167 180 173 194 193 176 177 187 179 187 200 199 212 167 171 187 186 166 153 167 163 195 188 201 188 259 73 178 179
317 36 14 186 142 178 73 134 139 145 139 134 128 142 143 144 153 152 158 162 155 145 177 190 184 181 173 170 159 177 244 193 200 138 148 175 176 186 190 181 196 182 188 215 275 152 164 184 182
335 208 226 243 209 164 100 146 168 162 149 149 146 158 167 150 157 165 164 156 167 177 167 185 170 174 175 151 133 161 190 32 143 143 165 178 185 203 197 189 189 177 142 198 202 146 133 158 222
218 213 237 187 177 58 93 141 165 169 161 164 160 159 176 188 188 171 183 174 177 175 177 188 178 159 143 126 132 162 246 244 154 161 170 185 181 199 189 192 184 168 176 192 219 235 126 155 232
264 281 259 116 125 91 133 150 177 172 166 166 178 181 187 197 198 179 181 193 182 187 177 186 161 161 147 150 169 216 235 170 239 185 186 206 179 189 189 178 186 181 203 217 184 135 161 248 145
234 236 260 51 145 96 173 162 179 182 190 182 182 189 196 187 183 186 185 183 181 185 188 164 169 168 188 173 183 150 207 162 225 207 189 190 201 187 183 186 192 192 191 200 216 175 177 200 177
210 193 186 160 115 57 125 45 187 202 195 194 207 197 193 186 183 189 187 192 193 181 182 169 163 170 185 178 121 49 353 28 342 8 229 216 193 161 160 185 173 206 219 192 201 189 189 187 225
290 190 144 142 111 174 161 253 221 201 199 196 207 203 203 195 190 187 190 193 197 199 176 168 173 172 182 168 162 167 204 216 226 207 268 132 157 171 174 168 175 190 195 206 204 210 206 179 202
250 149 139 140 100 108 138 82 257 184 205 206 207 209 208 203 196 188 192 193 196 192 180 171 176 179 169 176 177 184 210 231 216 104 156 206 204 183 174 173 170 183 193 214 200 195 204 196 203
123 58 33 40 74 5 205 144 266 198 217 214 208 217 211 205 205 200 199 194 196 190 185 174 178 192 182 182 194 197 211 219 207 156 208 219 242 237 195 232 212 183 208 211 204 202 199 202 206
83 85 88 29 355 228 97 90 238 221 214 219 201 207 205 202 189 197 192 198 197 190 185 183 183 199 200 201 202 201 209 213 215 179 201 208 214 248 240 218 230 167 217 232 200 215 214 202 205
52 133 150 175 183 236 206 223 249 222 261 276 286 173 171 196 193 188 191 190 197 205 193 190 197 203 199 198 207 205 211 213 226 185 188 208 216 226 244 234 219 233 200 225 211 203 215 194 224
126 244 179 107 70 72 287 300 296 201 268 266 198 129 157 174 176 180 178 185 187 194 202 202 193 204 197 209 203 209 204 205 219 208 188 213 220 245 259 243 225 240 225 220 210 211 214 200 204
144 160 66 15 135 195 284 279 238 251 193 137 148 220 183 186 159 167 167 171 178 186 197 187 183 185 187 205 206 213 213 219 217 214 208 209 220 237 240 232 223 221 232 218 220 219 209 203 212
347 54 67 110 114 153 162 260 229 195 137 142 192 200 206 214 213 171 161 153 168 178 204 197 173 169 181 178 207 201 222 237 233 220 233 223 209 217 232 236 235 216 224 218 223 226 214 214 219
288 114 115 114 228 83 145 274 315 188 156 161 176 219 270 18 160 158 179 204 209 203 210 196 176 175 184 177 185 206 216 224 241 242 236 222 206 227 231 222 231 234 231 213 223 228 225 221 221